Wind_Speed
17 17 17 17 16 14 9 4 4 10 14 9 10 8 14 6 11 6 5 6 8 6 4 3 4 4 7 25 17 7 7 2 5 8 3 10 6 7 7 4 4 4 5 3
17 14 15 15 16 16 13 6 12 11 10 5 7 7 13 9 3 6 4 6 9 10 5 4 6 3 10 19 12 4 7 4 5 8 7 2 6 8 6 4 1 5 4 4
17 14 14 13 13 13 12 4 3 10 15 19 10 11 11 9 7 3 4 3 10 8 5 9 6 10 9 24 16 4 2 2 4 1 5 9 7 7 9 3 3 5 4 7
18 14 12 12 11 13 8 4 7 17 3 7 12 14 5 7 3 4 4 2 6 6 4 6 2 2 8 15 6 3 2 4 6 6 10 8 13 13 8 8 8 2 6 7
17 14 11 11 10 12 9 6 7 14 21 21 6 6 2 7 4 4 7 7 12 9 6 5 8 5 5 7 9 8 5 4 3 6 13 13 6 10 13 11 10 12 20 7
16 13 11 10 9 9 3 6 9 4 14 10 2 5 2 4 7 5 3 5 5 6 5 10 19 26 12 5 6 4 3 3 5 1 11 11 6 12 16 7 23 2 6 10
16 13 10 10 9 8 7 7 11 6 5 8 10 16 9 11 9 3 12 5 4 10 11 12 10 14 12 13 1 7 2 4 2 2 7 2 4 9 12 11 17 19 12 11
16 15 11 10 10 11 9 6 2 6 5 12 14 24 7 16 7 2 9 7 8 9 9 3 3 5 7 10 12 6 3 4 2 3 1 5 4 7 9 9 6 16 13 9
17 16 13 12 11 10 11 6 4 6 8 5 16 25 10 3 4 5 6 5 4 5 3 2 3 3 2 4 9 7 11 7 4 3 4 2 6 11 17 16 5 12 11 17
18 17 15 12 14 11 10 7 4 4 6 21 16 16 2 7 3 3 7 6 3 3 2 2 4 2 1 3 2 4 0 3 4 4 2 4 7 11 18 4 3 7 13 13
19 16 15 12 14 12 11 7 9 6 5 24 18 18 18 7 5 2 6 1 4 2 0 3 4 3 6 2 4 2 4 3 3 4 2 2 4 10 3 5 8 9 25 14
18 14 14 13 14 13 11 8 7 10 13 17 13 11 12 2 6 5 2 3 3 2 3 1 0 3 4 6 3 7 1 3 1 6 6 12 7 5 2 12 14 11 15 22
14 13 12 13 14 14 13 11 2 4 10 17 21 15 4 5 2 3 5 6 7 8 3 2 2 3 2 2 5 2 4 4 5 5 3 8 6 8 15 14 11 11 10 17
12 10 10 13 14 14 14 13 9 3 6 5 8 12 22 14 15 10 8 5 1 5 3 2 2 2 1 1 2 4 4 3 2 4 9 12 9 9 7 8 8 8 7 12
8 9 9 12 13 13 13 14 16 8 2 5 14 19 13 24 15 8 6 6 2 3 4 2 3 2 2 1 3 3 3 4 3 3 16 10 15 13 12 10 3 6 7 7
9 8 9 10 12 11 6 2 9 15 10 5 3 6 10 15 15 10 7 6 6 10 4 5 3 4 3 2 1 8 4 6 12 8 11 11 11 13 10 8 6 7 7 8
8 6 8 10 11 13 11 4 5 15 12 4 5 4 9 17 16 14 10 9 7 9 13 4 2 3 3 2 2 6 2 8 11 11 13 10 14 14 10 7 11 11 7 8
7 4 7 8 10 12 17 5 4 13 11 4 3 3 1 8 5 8 14 10 8 4 2 5 4 5 3 1 6 7 3 11 9 7 6 5 6 11 10 8 11 7 4 6
7 6 6 6 6 6 7 9 4 6 9 3 4 2 3 23 20 15 11 9 3 8 5 5 2 2 3 5 3 4 8 8 6 6 5 6 4 12 15 11 8 4 6 11
9 11 3 3 5 4 9 7 4 5 6 6 5 6 2 1 4 8 6 8 3 1 4 4 3 3 8 11 9 5 4 7 7 10 8 8 3 18 17 15 12 8 12 11
11 3 2 2 12 7 4 5 6 8 4 7 10 13 3 4 3 1 6 1 2 1 4 4 3 3 5 14 11 13 9 5 7 6 11 9 12 18 16 14 13 12 10 9
5 3 2 9 5 5 4 4 5 6 5 8 20 10 8 5 3 2 5 4 1 3 5 4 3 4 12 14 12 10 13 13 10 12 12 11 15 18 18 18 13 8 10 10
5 1 1 1 3 2 5 6 3 4 6 10 15 7 7 8 5 4 3 4 5 12 3 3 4 8 23 19 15 12 11 12 10 14 15 16 19 19 17 16 16 15 13 12
3 3 2 4 4 5 5 5 5 14 8 15 19 18 9 7 6 13 3 5 5 5 7 5 5 24 24 21 17 15 14 13 12 14 19 22 21 20 20 18 13 11 8 6
3 4 4 6 11 13 13 10 10 12 12 8 10 4 7 2 2 3 2 3 5 4 5 4 19 30 27 22 19 18 17 17 18 23 27 27 23 22 16 13 11 11 8 5
3 5 5 10 10 10 11 4 16 10 6 10 10 2 3 2 0 2 5 4 3 3 3 14 29 30 24 22 21 20 20 21 28 29 26 21 18 17 16 13 7 5 5 6
4 7 15 16 12 12 17 13 13 5 2 2 3 2 3 3 2 4 3 5 6 13 22 19 25 23 23 21 20 20 22 25 25 23 20 17 12 11 12 11 9 9 10 8
Wind_Direction
327 329 329 328 331 337 322 315 270 153 175 185 225 246 286 257 277 2 17 336 312 287 70 34 113 18 348 338 338 353 24 298 301 285 285 169 201 228 222 139 248 187 162 157
327 319 327 327 335 339 350 314 282 273 208 231 248 224 245 242 313 38 1 340 329 350 56 71 360 8 327 320 334 17 335 347 340 328 347 353 194 266 266 246 331 261 146 198
325 318 320 321 327 332 336 321 286 253 212 237 267 271 267 262 136 190 93 343 310 316 56 66 45 5 323 318 300 350 326 260 217 211 216 285 295 254 266 265 252 263 246 142
328 312 310 310 313 319 333 238 258 324 278 231 233 257 297 357 336 101 14 192 305 300 121 57 84 329 348 321 324 312 266 259 288 312 324 283 313 305 282 260 252 121 133 126
326 311 302 300 305 308 302 270 346 324 304 304 332 218 169 254 355 56 352 357 353 356 77 125 203 197 170 226 314 305 295 297 25 26 358 1 323 325 352 301 265 119 114 87
319 313 296 292 299 315 330 304 296 326 281 307 178 263 158 64 68 355 239 22 342 9 99 163 183 190 200 227 196 305 340 56 28 1 346 326 69 354 355 19 29 14 121 154
311 312 290 281 287 293 294 312 328 302 294 323 327 307 95 80 53 35 345 47 321 17 5 315 276 229 216 234 326 310 79 74 26 5 337 201 280 3 10 64 46 21 49 151
304 304 287 261 268 278 279 291 325 321 299 316 315 327 131 115 110 241 256 32 26 5 307 301 2 14 17 348 337 257 141 100 77 94 54 304 1 3 1 349 23 34 34 356
298 295 290 265 251 260 273 257 248 285 304 257 336 326 104 117 196 184 200 71 5 316 295 278 95 53 133 329 320 35 58 62 103 89 78 45 246 305 324 317 5 9 40 43
295 290 280 260 245 251 260 221 200 255 275 276 330 322 346 188 180 237 132 120 219 216 286 312 94 274 72 194 167 301 76 71 149 143 119 263 248 296 325 70 242 351 129 102
297 286 268 249 238 244 250 225 209 244 274 281 292 325 342 40 16 105 159 183 237 223 86 51 167 157 202 179 237 268 149 136 189 92 89 281 336 295 243 166 69 62 111 106
295 283 263 236 225 236 244 231 194 219 240 266 285 302 332 178 43 23 318 140 173 357 36 191 294 146 161 189 237 163 81 147 105 129 209 237 201 5 96 103 70 44 56 122
295 286 256 225 216 226 235 225 185 220 263 296 272 265 281 242 206 290 320 20 14 89 71 293 286 56 93 98 293 186 120 104 131 88 247 194 170 89 80 86 73 45 44 43
295 290 252 221 218 221 232 232 197 255 293 268 277 246 263 237 237 241 238 339 5 60 16 268 283 25 9 74 179 101 131 110 84 110 178 133 136 127 108 66 52 38 39 47
295 294 244 221 217 219 227 236 210 210 284 320 299 281 237 210 213 205 205 239 274 248 220 217 258 87 69 71 66 339 25 167 140 183 161 138 153 141 133 126 123 66 54 52
306 296 228 217 222 210 198 241 227 206 228 287 289 302 190 190 196 179 201 207 239 261 282 268 123 117 119 102 247 211 126 77 106 118 139 114 142 159 148 140 149 120 98 73
298 278 211 204 213 210 184 192 171 194 197 240 271 241 210 180 194 182 206 215 252 229 260 240 115 122 100 100 177 358 93 102 125 115 118 139 143 139 152 147 152 125 133 130
287 244 209 203 209 226 221 115 133 180 185 254 269 257 319 189 175 182 213 188 222 253 269 288 109 132 165 168 247 276 166 133 130 135 138 165 145 149 161 149 129 134 156 140
262 194 182 190 205 200 241 210 223 221 199 258 246 191 191 187 224 200 192 196 189 228 193 228 162 194 192 193 225 326 166 137 141 158 177 202 211 168 147 136 124 142 159 129
162 156 155 203 199 159 168 170 203 188 212 235 248 271 197 107 194 198 187 189 236 213 218 221 153 209 147 161 185 204 117 171 181 178 182 204 166 148 145 149 150 125 107 104
154 173 235 159 158 152 200 204 202 192 225 220 225 246 162 195 141 292 12 237 195 223 221 155 207 217 225 238 214 212 215 179 192 203 175 171 175 159 141 133 142 133 130 129
182 248 212 143 185 213 224 200 206 196 213 199 193 181 141 154 225 79 103 270 225 239 192 178 219 204 180 171 176 179 204 195 194 179 156 141 156 163 159 151 140 154 158 151
192 268 160 259 244 138 220 206 203 212 221 190 183 169 146 114 189 53 203 93 247 312 205 196 207 169 163 163 165 174 174 173 187 161 155 158 158 165 157 149 155 163 151 150
217 190 178 226 223 224 212 233 227 235 292 214 191 160 148 165 149 204 214 181 177 213 184 210 176 163 163 163 166 164 167 175 180 170 165 162 152 147 151 145 149 140 146 171
220 191 220 229 243 284 284 308 268 275 231 200 176 164 109 46 298 181 182 228 214 203 198 194 172 167 162 163 169 173 178 181 178 161 153 151 154 150 145 148 147 154 160 170
232 238 252 258 272 285 272 266 273 267 256 234 173 73 104 80 155 272 220 210 226 210 108 131 154 155 158 166 171 171 171 162 157 160 162 164 168 174 170 167 180 204 176 190
233 242 235 249 279 269 271 300 321 324 167 80 57 146 92 111 213 229 234 236 234 112 124 135 152 154 162 170 171 177 174 163 162 167 172 169 179 193 200 203 173 193 181 215
Height
1524 1521 1518 1515 1512 1509 1509 1507 1505 1496 1498 1502 1500 1501 1494 1487 1483 1483 1483 1484 1483 1483 1483 1487 1496 1497 1493 1485 1479 1481 1477 1482 1496 1479 1453 1454 1461 1471 1475 1502 1497 1494 1498 1522
1523 1520 1518 1515 1513 1509 1508 1506 1501 1493 1496 1502 1497 1489 1486 1483 1482 1484 1485 1487 1484 1482 1490 1500 1497 1493 1487 1488 1484 1489 1485 1495 1508 1487 1470 1460 1468 1466 1466 1471 1476 1491 1500 1516
1520 1519 1516 1514 1512 1511 1510 1509 1502 1491 1491 1491 1490 1488 1484 1482 1481 1483 1484 1486 1485 1485 1494 1496 1508 1508 1499 1494 1489 1487 1487 1492 1501 1517 1500 1487 1483 1469 1465 1472 1491 1488 1484 1493
1518 1517 1515 1513 1512 1510 1510 1508 1499 1495 1490 1488 1485 1482 1480 1480 1482 1481 1483 1484 1484 1486 1500 1511 1513 1506 1499 1494 1489 1487 1488 1499 1492 1488 1484 1478 1474 1474 1469 1474 1473 1481 1481 1484
1515 1514 1513 1511 1510 1509 1509 1506 1502 1494 1489 1482 1477 1481 1478 1481 1479 1482 1486 1488 1485 1484 1492 1496 1510 1503 1501 1504 1491 1490 1484 1497 1488 1494 1491 1487 1486 1475 1469 1464 1461 1473 1479 1500
1512 1511 1510 1509 1508 1508 1506 1505 1502 1500 1488 1482 1479 1479 1477 1478 1481 1485 1486 1487 1490 1490 1492 1491 1491 1490 1489 1488 1493 1491 1490 1496 1505 1506 1501 1494 1497 1500 1487 1482 1478 1464 1481 1488
1510 1508 1507 1507 1506 1506 1506 1505 1504 1500 1492 1487 1483 1476 1474 1480 1485 1487 1487 1488 1490 1491 1490 1489 1487 1486 1487 1489 1487 1488 1495 1500 1507 1520 1509 1516 1509 1501 1494 1494 1493 1490 1485 1489
1506 1505 1504 1503 1504 1504 1504 1503 1504 1503 1497 1489 1482 1481 1474 1480 1484 1486 1487 1489 1490 1489 1489 1491 1492 1499 1499 1499 1493 1488 1488 1499 1514 1529 1527 1512 1504 1506 1505 1504 1507 1498 1498 1497
1502 1501 1500 1500 1500 1500 1501 1502 1502 1503 1500 1486 1485 1485 1475 1480 1483 1486 1486 1488 1489 1489 1488 1490 1506 1525 1526 1518 1508 1494 1492 1497 1512 1529 1532 1533 1521 1504 1502 1500 1517 1502 1505 1508
1497 1496 1496 1496 1497 1497 1497 1498 1500 1501 1499 1485 1489 1484 1478 1478 1480 1483 1484 1488 1489 1489 1491 1496 1514 1526 1523 1526 1519 1510 1504 1509 1517 1523 1527 1520 1503 1501 1503 1518 1522 1503 1509 1511
1492 1491 1491 1491 1493 1494 1494 1495 1497 1498 1496 1486 1487 1484 1480 1480 1481 1485 1487 1489 1488 1487 1493 1505 1507 1520 1521 1518 1508 1503 1507 1523 1518 1530 1537 1529 1499 1503 1507 1502 1502 1504 1508 1511
1487 1486 1486 1487 1488 1491 1492 1492 1493 1494 1496 1488 1484 1483 1480 1480 1483 1485 1486 1488 1486 1487 1491 1492 1487 1494 1510 1509 1510 1493 1504 1498 1505 1512 1520 1502 1504 1504 1501 1502 1504 1507 1508 1505
1483 1482 1481 1483 1485 1487 1489 1490 1492 1492 1491 1486 1484 1480 1480 1480 1482 1484 1486 1488 1487 1487 1488 1488 1484 1491 1487 1498 1501 1490 1488 1489 1503 1502 1503 1502 1503 1504 1505 1506 1506 1508 1509 1510
1479 1478 1478 1480 1482 1484 1486 1487 1490 1490 1490 1486 1478 1479 1479 1481 1482 1483 1484 1486 1486 1487 1488 1487 1487 1490 1484 1490 1490 1491 1489 1490 1494 1498 1499 1500 1502 1505 1506 1507 1507 1509 1510 1512
1477 1476 1476 1478 1480 1481 1483 1484 1487 1489 1492 1487 1479 1475 1470 1476 1480 1481 1482 1485 1486 1487 1487 1487 1488 1484 1486 1485 1488 1492 1488 1491 1498 1502 1496 1497 1501 1505 1507 1509 1511 1511 1512 1512
1475 1473 1474 1476 1478 1480 1482 1484 1486 1488 1489 1489 1481 1473 1471 1473 1477 1479 1482 1483 1485 1485 1485 1483 1482 1484 1486 1492 1495 1486 1487 1489 1490 1494 1496 1498 1501 1504 1507 1510 1512 1512 1513 1515
1473 1472 1473 1475 1476 1478 1479 1480 1482 1484 1487 1488 1481 1470 1469 1472 1475 1478 1481 1482 1483 1483 1482 1480 1481 1484 1485 1488 1496 1488 1489 1490 1492 1494 1497 1500 1502 1505 1508 1510 1512 1514 1516 1518
1471 1471 1472 1473 1475 1478 1478 1479 1480 1483 1485 1485 1481 1471 1470 1470 1474 1477 1480 1480 1481 1481 1480 1479 1478 1482 1483 1491 1486 1486 1488 1489 1492 1495 1498 1500 1502 1504 1506 1509 1511 1514 1517 1519
1469 1470 1473 1474 1475 1477 1477 1479 1481 1482 1486 1481 1474 1471 1473 1473 1474 1475 1477 1478 1480 1478 1477 1478 1479 1480 1486 1482 1483 1485 1486 1489 1492 1494 1497 1499 1501 1503 1506 1509 1513 1516 1518 1519
1469 1472 1474 1473 1473 1475 1477 1480 1480 1480 1480 1478 1473 1469 1470 1471 1471 1472 1475 1475 1477 1478 1474 1474 1476 1479 1476 1479 1482 1484 1487 1488 1491 1493 1496 1498 1500 1502 1506 1510 1514 1516 1519 1520
1471 1472 1472 1472 1473 1476 1477 1476 1476 1475 1473 1469 1467 1468 1470 1471 1472 1474 1474 1471 1471 1477 1474 1475 1478 1478 1473 1475 1478 1481 1485 1488 1490 1492 1494 1497 1500 1503 1506 1511 1513 1515 1518 1520
1471 1471 1471 1472 1474 1474 1472 1469 1466 1464 1463 1456 1457 1463 1465 1469 1471 1474 1480 1478 1470 1476 1467 1472 1478 1469 1469 1472 1476 1479 1482 1486 1489 1490 1494 1497 1500 1502 1505 1508 1513 1516 1519 1519
1471 1471 1471 1470 1470 1473 1467 1461 1457 1454 1447 1447 1450 1459 1463 1470 1478 1476 1477 1482 1482 1472 1466 1470 1470 1463 1466 1469 1473 1477 1480 1484 1487 1489 1492 1496 1500 1502 1506 1510 1512 1516 1517 1519
1470 1471 1471 1470 1463 1457 1452 1450 1448 1447 1444 1443 1446 1452 1460 1466 1474 1473 1471 1466 1470 1467 1469 1463 1458 1461 1464 1468 1472 1476 1479 1483 1485 1487 1491 1494 1499 1503 1507 1510 1512 1514 1517 1519
1468 1468 1466 1457 1453 1449 1448 1447 1447 1445 1443 1444 1445 1448 1452 1458 1458 1455 1457 1457 1456 1452 1456 1453 1453 1458 1462 1466 1471 1474 1477 1481 1483 1486 1490 1494 1498 1502 1506 1509 1511 1514 1516 1518
1465 1464 1458 1452 1451 1448 1446 1446 1446 1444 1445 1444 1445 1448 1452 1461 1462 1461 1452 1452 1452 1448 1446 1447 1449 1456 1461 1466 1470 1473 1476 1478 1482 1486 1490 1494 1497 1501 1504 1507 1510 1513 1515 1517
1462 1455 1451 1451 1450 1447 1444 1445 1444 1443 1446 1447 1448 1451 1455 1460 1461 1460 1448 1446 1444 1442 1447 1452 1453 1456 1461 1466 1470 1472 1475 1478 1481 1485 1489 1493 1496 1499 1502 1506 1509 1512 1515 1517